DateTimeUTC,F1_A11,F1_S11,BsB_S11,BsG_S11,BsR_S11,BbsB_S11,BbsG_S11,BbsR_S11,BaB_A11,BaG_A11,BaR_A11,Tu_S11,T_S11,Uu_S11,U_S11,P_S11,T1_A11
2021-08-02T00:00:00Z,00000200,20000000,,,,,,,-000.01,0000.63,-000.02,18.9,25.9,04.6,03.0,0675.2,31.1
2021-08-02T00:01:00Z,00000200,20000000,,,,,,,-000.21,-000.42,-000.38,18.9,25.9,04.6,03.0,0675.2,31.0
2021-08-02T00:02:00Z,00000200,20000000,,,,,,,0000.54,0000.22,0000.51,18.9,25.9,04.6,03.0,0675.2,31.1
2021-08-02T00:03:00Z,00000200,60000000,,,,,,,-000.13,-000.00,-000.05,18.9,25.9,04.6,03.0,0675.2,31.0
2021-08-02T00:04:00Z,00000200,40000000,0001.89,0001.19,0000.69,0000.27,0000.38,0000.18,-000.06,0000.06,-000.15,18.9,25.7,04.4,02.9,0676.1,31.1
2021-08-02T00:05:00Z,00000200,00000000,0002.14,0001.19,0000.62,0000.19,-000.12,0000.16,0000.76,0000.62,0000.58,19.0,25.6,04.3,02.9,0676.1,31.0
2021-08-02T00:06:00Z,00000200,00000000,0001.10,0000.68,0000.76,0000.22,-000.12,0000.04,-000.18,-000.05,0000.04,19.0,25.6,04.4,03.0,0676.1,31.1
2021-08-02T00:07:00Z,00000200,00000000,0001.08,0000.97,0000.46,-000.60,0000.27,-000.05,0000.21,0000.01,-000.13,19.0,25.6,04.3,02.9,0676.1,31.0
2021-08-02T00:08:00Z,00000200,00000000,0001.38,0000.78,0000.56,-000.31,0000.29,0000.34,0000.16,0000.20,-000.00,19.0,25.6,04.2,02.8,0676.1,31.1
2021-08-02T00:09:00Z,00000200,00000000,0000.81,0000.78,0000.43,0000.21,0000.18,0000.04,0000.11,0000.40,0000.49,19.0,25.6,04.2,02.8,0676.1,31.0
2021-08-02T00:10:00Z,00000200,00000000,0000.93,0000.98,0000.68,0000.24,-000.12,-000.09,0001.74,0001.31,0001.14,19.0,25.6,04.4,02.9,0676.1,31.1
2021-08-02T00:11:00Z,00000200,00000000,0001.07,0001.19,0000.35,0000.27,0000.01,0000.21,-000.97,-000.97,-001.13,18.9,25.6,04.5,03.0,0676.1,31.0
2021-08-02T00:12:00Z,00000200,00000000,0001.24,0000.62,0000.29,0000.23,-000.08,-000.07,-000.07,-000.18,0000.05,18.9,25.5,04.1,02.8,0676.1,31.1
2021-08-02T00:13:00Z,00000200,00000000,0001.99,0000.86,0000.36,-000.01,0000.14,-000.08,0000.41,0000.29,0000.33,18.9,25.5,03.9,02.6,0676.1,31.0
2021-08-02T00:14:00Z,00000200,00000000,0001.06,0000.41,0000.41,0000.63,0000.12,0000.23,0000.25,0000.30,-000.00,18.9,25.5,03.9,02.6,0676.0,31.0
2021-08-02T00:15:00Z,00000200,00000000,0001.10,0000.52,0000.42,0000.50,0000.32,0000.18,0000.12,0000.22,0000.63,18.9,25.5,03.9,02.6,0676.0,31.0
2021-08-02T00:16:00Z,00000200,00000000,0000.72,0000.39,0000.49,0000.13,-000.09,0000.13,0000.66,0000.39,0000.17,18.9,25.5,04.1,02.8,0676.0,31.0
2021-08-02T00:17:00Z,00000200,00000000,0001.07,0000.40,0000.04,0000.02,-000.07,-000.16,-000.20,0000.16,-000.30,18.9,25.5,03.9,02.6,0676.0,31.0
2021-08-02T00:18:00Z,00000200,00000000,0001.04,0000.97,0000.49,0000.30,0000.03,0000.23,0001.02,0001.00,0001.06,19.0,25.5,04.0,02.7,0676.0,31.0
2021-08-02T00:19:00Z,00000200,00000000,0000.56,0000.60,0000.48,0000.44,-000.31,0000.40,-000.45,-000.80,-000.56,19.1,25.6,04.1,02.8,0676.0,31.1
2021-08-02T00:20:00Z,00000200,00000000,0000.61,0000.29,0000.25,-000.04,0000.13,0000.08,0000.18,0000.56,-000.21,19.2,25.6,03.9,02.6,0676.0,31.1
2021-08-02T00:21:00Z,00000200,00000000,0001.34,0000.26,0000.31,0000.16,0000.16,0000.14,0000.06,-000.06,0000.03,19.2,25.7,03.8,02.6,0676.0,31.1
2021-08-02T00:22:00Z,00000200,00000000,0000.64,0000.30,0000.27,0000.34,0000.12,0000.14,-000.08,0000.17,0000.61,19.3,25.7,03.8,02.6,0676.0,31.1
2021-08-02T00:23:00Z,00000200,00000000,0000.97,0000.78,0000.58,0000.02,-000.09,-000.02,-000.14,-000.59,-000.73,19.3,25.7,03.7,02.5,0676.0,31.1
2021-08-02T00:24:00Z,00000200,00000000,0000.67,0000.31,0000.31,0000.23,0000.11,0000.00,0000.13,0000.28,0000.37,19.2,25.7,03.5,02.4,0675.9,31.1
2021-08-02T00:25:00Z,00000200,00000000,0000.59,0000.25,0000.26,-000.13,-000.26,0000.18,0000.31,-000.01,-000.06,19.2,25.6,03.5,02.4,0675.9,31.1
2021-08-02T00:26:00Z,00000200,00000000,0001.12,0000.16,0000.14,-000.03,0000.18,0000.24,0000.11,-000.05,0000.06,19.2,25.6,03.8,02.5,0675.9,31.1
2021-08-02T00:27:00Z,00000200,00000000,0001.25,0000.37,0000.24,0000.50,-000.05,-000.22,-000.27,0000.19,-000.07,19.1,25.6,03.6,02.4,0675.9,31.1
2021-08-02T00:28:00Z,00000200,00000000,0000.57,0000.59,0000.32,0000.50,-000.17,-000.12,0000.31,-000.14,0000.38,19.1,25.6,03.5,02.4,0675.9,31.0
2021-08-02T00:29:00Z,00000200,00000000,0001.24,0000.39,0000.19,-000.04,0000.06,0000.16,0000.27,0000.37,0000.27,19.1,25.6,03.6,02.4,0675.9,31.1
2021-08-02T00:30:00Z,00000200,00000000,0000.80,0000.43,0000.07,-000.01,-000.09,0000.01,0000.08,0000.26,0000.01,19.1,25.5,03.6,02.4,0675.9,31.0
2021-08-02T00:31:00Z,00000200,00000000,0000.38,0000.51,0000.42,0000.37,0000.42,0000.06,0001.09,0001.03,0000.74,19.1,25.6,04.0,02.7,0675.9,31.0
2021-08-02T00:32:00Z,00000200,00000000,0000.99,0000.95,0000.09,-000.26,0000.24,-000.06,-000.05,-000.14,-000.15,19.1,25.6,03.8,02.6,0675.9,31.0
2021-08-02T00:33:00Z,00000200,00000000,0001.13,0000.42,0000.14,0000.66,0000.12,-000.08,0001.19,0001.17,0000.99,19.2,25.6,03.9,02.6,0675.8,31.1
2021-08-02T00:34:00Z,00000200,00000000,0000.80,0000.83,0000.48,0000.26,0000.27,-000.10,-000.63,-000.21,-000.20,19.3,25.7,04.3,02.9,0675.8,31.1
2021-08-02T00:35:00Z,00000200,00000000,0001.58,0000.90,0000.65,0000.03,0000.05,0000.37,0001.95,0001.70,0001.74,19.4,25.7,04.7,03.2,0675.8,31.1
2021-08-02T00:36:00Z,00000200,00000000,0001.55,0001.37,0000.65,0000.42,0000.30,-000.04,0000.21,0000.06,-000.03,19.4,25.7,04.1,02.8,0675.8,31.1
2021-08-02T00:37:00Z,00000200,00000000,0002.01,0001.65,0000.90,0000.27,0000.57,-000.02,0000.50,0000.74,0000.52,19.4,25.7,04.3,02.9,0675.7,31.1
2021-08-02T00:38:00Z,00000200,00000000,0001.27,0000.71,0000.50,0000.10,0000.32,0000.33,-000.12,-000.80,-000.50,19.4,25.7,04.1,02.8,0675.8,31.1
2021-08-02T00:39:00Z,00000200,00000000,-000.02,0000.21,0000.47,0000.36,-000.04,-000.02,-000.01,0000.44,0000.40,19.3,25.7,03.9,02.7,0675.7,31.1
2021-08-02T00:40:00Z,00000200,00000000,0001.12,0000.70,-000.03,-000.29,-000.02,-000.16,0000.06,-000.34,-000.48,19.3,25.7,03.8,02.6,0675.7,31.1
2021-08-02T00:41:00Z,00000200,00000000,-000.02,0000.36,-000.00,0000.23,-000.20,0000.16,-000.31,-000.01,-000.38,19.3,25.7,03.6,02.4,0675.7,31.1
2021-08-02T00:42:00Z,00000200,00000000,0000.38,0000.64,0000.16,0000.20,-000.02,0000.22,0001.22,0001.36,0001.37,19.3,25.7,03.5,02.4,0675.7,31.1
2021-08-02T00:43:00Z,00000200,00000000,0000.49,0000.20,0000.26,0000.53,0000.12,0000.16,-000.74,-000.67,-000.59,19.2,25.7,03.7,02.5,0675.7,31.1
2021-08-02T00:44:00Z,00000200,00000000,0000.74,0000.45,0000.58,-000.06,0000.26,0000.26,0000.31,-000.04,-000.22,19.2,25.6,03.6,02.4,0675.7,31.1
2021-08-02T00:45:00Z,00000200,00000000,-000.09,0000.55,0000.19,0000.67,0000.04,0000.01,-000.07,-000.05,0000.17,19.2,25.6,03.6,02.4,0675.7,31.0
2021-08-02T00:46:00Z,00000200,00000000,0000.02,0000.45,0000.57,-000.02,0000.07,0000.37,-000.01,0000.19,-000.31,19.2,25.6,03.5,02.4,0675.6,31.0
2021-08-02T00:47:00Z,00000200,00000000,0001.21,0001.24,0000.72,-000.03,0000.07,0000.40,0000.46,0000.18,0000.37,19.2,25.6,03.5,02.3,0675.6,31.0
2021-08-02T00:48:00Z,00000200,00000000,0001.79,0001.12,0000.31,0000.45,-000.02,-000.22,0000.20,-000.07,0000.48,19.2,25.7,03.4,02.3,0675.6,31.1
2021-08-02T00:49:00Z,00000200,00000000,0002.15,0001.55,0000.49,0000.28,0000.07,0000.32,0000.45,0000.53,-000.08,19.3,25.7,03.3,02.3,0675.5,31.1
2021-08-02T00:50:00Z,00000200,00000000,0001.52,0001.49,0000.97,0000.03,0000.01,0000.40,0000.27,0000.40,0000.49,19.3,25.7,03.4,02.3,0675.5,31.1
2021-08-02T00:51:00Z,00000200,00000000,0002.54,0001.59,0000.95,-000.02,0000.08,0000.32,0000.62,0000.89,0000.20,19.3,25.7,03.4,02.3,0675.5,31.1
2021-08-02T00:52:00Z,00000200,00000000,0002.67,0001.72,0000.91,0000.24,0000.11,0000.07,0001.06,0000.29,0000.96,19.2,25.7,03.4,02.3,0675.5,31.1
2021-08-02T00:53:00Z,00000200,00000000,0002.52,0001.51,0001.23,0001.39,0000.10,0000.45,0000.24,0000.73,0000.15,19.2,25.7,03.5,02.4,0675.5,31.1
2021-08-02T00:54:00Z,00000200,00000000,0002.21,0001.96,0001.35,0000.32,0000.16,0000.30,0000.83,0000.60,0000.90,19.2,25.6,03.6,02.5,0675.4,31.0
2021-08-02T00:55:00Z,00000200,00000000,0003.41,0002.10,0001.45,0000.48,0000.19,0000.14,0001.19,0001.40,0000.54,19.2,25.6,03.9,02.6,0675.4,31.0
2021-08-02T00:56:00Z,00000200,00000000,0002.63,0001.82,0001.32,0000.23,0000.21,0000.06,0000.44,0000.47,0000.72,19.1,25.6,04.2,02.8,0675.4,31.1
2021-08-02T00:57:00Z,00000200,40000000,,,,,,,0000.59,0000.10,0000.42,19.2,25.6,04.4,03.0,0675.3,31.1
2021-08-02T00:58:00Z,00000200,60000000,,,,,,,-000.18,0000.33,-000.39,18.8,25.7,04.2,02.7,0674.4,31.0
2021-08-02T00:59:00Z,00000200,20000000,,,,,,,-000.03,-000.17,0000.04,18.8,25.8,04.0,02.6,0674.4,31.0
